Dewpoint
14 14 9 11 12 12 11 12 11 11 11 11 11 10 8 5 11 10 11 11 10 11 13 2 -1 -2 -3 1 8 9 10 10 10 10 10 10 11 11 11 11 12 12 11
13 14 9 10 10 11 11 11 12 11 10 9 9 7 5 7 8 8 9 11 8 2 8 3 -2 -2 -1 -0 2 6 8 9 10 10 11 11 11 11 12 12 13 10 10
15 13 12 9 10 11 11 11 11 11 11 10 8 9 10 8 7 -2 0 -0 0 3 4 3 -0 -1 -1 -2 -2 -1 2 7 10 11 13 13 11 11 11 12 11 11 11
14 14 14 11 8 8 11 11 11 11 11 11 11 11 10 10 9 4 11 10 -1 2 2 2 1 2 2 3 2 0 -2 2 8 12 13 13 13 11 11 11 11 11 11
12 12 12 10 11 9 8 10 11 11 11 11 11 11 9 10 10 7 11 12 1 -3 -3 -0 2 3 3 4 4 4 4 0 4 11 12 12 13 11 11 11 12 12 11
13 14 10 9 10 10 11 10 8 9 10 11 11 11 10 10 10 9 5 6 3 2 0 -1 -2 0 2 3 4 4 5 6 10 10 11 9 13 10 11 11 11 11 12
14 13 11 9 9 9 9 10 10 8 8 11 11 11 11 11 10 10 9 4 4 4 5 5 3 0 -1 1 2 2 0 4 11 11 11 12 7 6 6 8 10 11 9
13 12 11 10 9 7 6 9 10 9 10 11 12 12 11 8 4 9 10 10 8 9 7 8 7 6 5 2 0 1 -1 -2 7 9 10 11 8 9 8 1 3 3 2
11 11 11 10 9 8 9 6 9 9 11 12 12 11 10 5 6 8 9 10 11 11 11 10 9 8 7 7 5 2 0 1 8 8 7 9 5 7 10 9 4 2 2
10 9 8 8 8 8 6 9 10 10 10 11 11 9 8 6 9 8 8 9 10 11 11 11 10 9 9 9 8 8 6 1 8 9 9 4 -2 0 5 11 10 7 4
10 10 7 7 9 8 8 9 8 10 10 9 10 9 9 8 8 8 8 9 9 10 10 10 9 9 9 9 9 9 9 11 8 8 9 7 3 -1 -2 2 10 11 10
12 11 11 8 9 10 9 8 9 8 8 9 9 9 9 10 10 10 9 9 9 10 10 10 10 10 10 11 10 9 10 12 11 10 9 7 6 7 6 -1 -2 7 11
11 11 10 10 10 10 11 10 9 9 9 9 9 9 9 9 9 8 9 10 10 10 11 10 10 10 11 10 10 10 11 11 11 11 11 9 6 6 8 8 5 -0 -0
8 10 9 10 10 8 8 10 11 11 8 8 8 9 9 9 8 10 11 11 11 10 9 9 10 9 10 10 10 9 10 11 11 11 11 10 10 7 7 8 10 10 6
8 8 8 8 5 3 3 4 5 7 8 8 9 9 9 10 10 11 11 11 11 10 9 9 9 8 6 6 4 3 1 0 3 7 9 5 6 11 9 8 10 10 10
7 7 7 4 1 1 1 1 -0 -1 -1 1 4 8 9 10 11 11 11 10 9 8 7 5 5 6 -0 -3 -3 -6 -8 -9 -8 -6 -6 1 6 10 10 10 9 9 9
6 6 4 2 1 1 0 0 -1 -1 -1 1 6 8 9 8 10 10 9 7 5 3 2 1 -2 -4 -5 -7 -6 -9 -9 -9 -8 -10 -8 -7 -5 6 8 9 9 10 10
5 3 3 3 2 0 -1 -0 -1 -3 -4 -4 -1 4 7 7 5 2 -0 -2 -3 -5 -6 -8 -6 -1 -4 0 -1 -2 -3 -7 -8 -9 -9 -9 -8 -4 -2 7 8 10 11
4 4 3 3 1 -1 -2 -1 -2 -2 -3 -5 -6 -7 -7 -7 -8 -8 -9 -9 -9 -8 -8 -7 -7 -7 -1 1 -2 1 -1 -5 -7 -6 -6 -6 -5 -7 -6 -9 -8 -6 -5
4 4 3 2 0 -1 -1 -1 -2 -2 -4 -6 -7 -8 -8 -9 -9 -8 -8 -8 -8 -8 -7 -7 -7 -6 -7 -6 -6 -0 -1 -3 -4 -4 -2 -4 -5 -6 -6 -6 -6 -5 -6
4 4 4 2 0 -2 -1 -1 -0 -2 -6 -7 -7 -8 -8 -8 -9 -8 -8 -8 -6 -4 -6 -6 -5 -6 -6 -6 -5 2 3 5 5 2 0 1 1 1 -1 -0 -1 -1 1
5 4 3 2 0 -2 -1 2 3 -3 -6 -7 -7 -7 -8 -9 -8 -8 -7 -7 -6 -5 -5 -5 -5 -1 -5 -7 -4 0 4 4 4 3 2 2 2 3 4 3 4 3 4
5 4 4 3 0 -1 -1 -2 -3 -6 -7 -7 -7 -8 -8 -7 -8 -8 -7 -7 -6 -6 -6 -6 -6 -4 1 -6 -6 2 3 2 2 1 2 1 1 3 2 2 4 3 3
5 5 4 3 -0 -2 -2 -3 -5 -6 -6 -6 -7 -8 -7 -6 -8 -8 -9 -7 -6 -6 -6 -6 -6 -6 -4 -2 -3 -6 -5 -3 3 2 3 3 3 2 1 0 2 2 2
5 6 4 3 -0 -2 -3 -4 -4 -2 -1 -6 -6 -7 -7 -7 -7 -7 -8 -7 -7 -6 -6 -5 -5 -6 -6 -4 -4 -2 -1 -1 -3 -1 2 2 3 0 -0 2 1 1 4
5 5 4 2 -0 -2 -3 -4 -4 -3 -5 -6 -6 -7 -7 -6 -8 -7 -6 -7 -6 -6 -6 -5 -5 -5 -5 -5 -5 -4 -1 1 2 2 2 1 1 0 -0 2 3 3 3
Wind_Speed
3 1 3 5 6 5 4 4 4 5 5 5 6 3 3 3 4 4 4 4 5 8 7 6 7 7 8 8 9 9 9 8 8 8 8 8 9 9 9 10 10 10 13
3 1 2 3 5 5 5 5 5 4 5 5 5 5 4 4 3 5 5 2 1 4 4 7 8 9 9 8 7 7 8 8 8 9 9 6 7 8 8 8 9 10 12
4 3 0 5 5 5 5 6 6 5 4 4 6 6 5 3 3 4 5 3 4 6 6 8 8 9 9 8 7 6 5 7 9 13 12 6 4 7 7 7 9 10 11
3 2 2 5 5 6 5 5 5 5 4 4 5 5 6 5 4 5 5 5 5 5 6 7 7 7 7 7 7 6 6 6 9 13 5 8 4 6 7 6 7 8 9
2 2 6 3 4 4 5 5 4 4 5 5 5 6 6 6 4 5 6 5 3 4 5 5 6 6 6 6 6 6 6 6 9 8 4 5 5 4 6 7 7 8 8
2 1 2 2 3 4 3 7 6 4 6 7 6 6 6 5 3 4 5 5 3 4 4 4 4 4 4 4 4 4 5 7 10 3 4 5 1 4 5 6 6 7 6
3 1 3 4 5 3 2 3 7 13 14 10 9 7 6 5 4 5 5 6 5 4 3 2 3 3 3 3 3 3 3 7 7 3 4 1 2 4 4 5 6 5 6
3 3 5 7 9 4 4 5 7 10 12 10 8 9 9 6 3 7 6 6 6 5 4 3 2 1 1 1 2 2 3 4 5 2 3 2 1 2 5 5 5 5 5
3 3 5 8 13 12 12 5 10 12 11 8 7 7 8 5 6 8 8 8 8 7 6 5 4 3 2 1 0 1 2 4 6 2 3 3 3 2 4 6 6 6 6
4 4 5 5 5 8 5 4 9 15 16 8 8 6 5 6 6 5 7 9 9 9 8 7 6 5 4 3 3 2 1 2 2 1 2 3 2 2 2 5 6 6 6
7 6 6 6 4 2 3 2 3 15 13 14 11 6 7 8 8 8 8 10 11 10 9 8 7 6 5 5 5 3 1 2 3 3 3 3 2 2 2 3 6 8 9
7 6 5 7 5 3 4 7 8 8 9 9 7 11 10 8 8 9 8 12 13 11 9 8 7 6 6 6 6 4 1 4 5 3 8 6 5 4 3 3 4 6 8
7 7 7 7 6 4 6 5 6 9 12 10 13 14 15 13 12 14 14 12 12 11 9 8 7 7 7 8 8 7 8 8 6 7 9 8 8 8 7 5 4 5 6
9 7 9 8 6 3 1 1 2 1 8 11 12 14 14 16 17 19 17 15 13 9 7 6 5 9 8 9 9 8 7 3 3 5 9 12 10 10 10 9 7 6 5
9 10 10 7 5 4 4 3 3 4 6 8 10 11 11 10 11 14 16 16 14 12 10 8 6 8 7 10 11 13 13 12 11 9 9 10 11 12 11 10 9 8 7
11 12 11 9 7 5 5 4 3 3 4 5 5 6 7 9 11 12 11 8 8 8 10 10 9 8 10 11 12 12 11 12 13 14 12 10 10 11 12 13 12 13 13
11 11 11 11 10 8 7 6 6 4 4 4 5 5 6 8 8 8 10 12 11 10 11 10 11 11 10 11 11 12 12 11 12 13 11 12 12 13 14 14 15 17 18
12 13 14 12 11 10 9 8 8 7 8 8 7 8 9 9 9 10 10 10 10 10 10 11 10 8 8 9 9 9 10 10 11 13 14 14 14 13 14 17 18 18 16
14 13 14 13 12 12 11 10 9 8 8 8 8 8 8 9 9 9 9 9 9 9 10 10 10 10 8 9 8 8 9 9 9 10 11 12 13 14 15 16 16 17 18
15 14 15 13 12 12 12 11 10 9 9 8 8 8 8 7 7 7 8 8 8 8 8 9 9 8 9 8 7 5 7 6 5 5 6 7 9 11 13 15 15 15 17
16 15 16 15 14 14 13 10 9 9 9 8 8 7 7 7 7 7 7 6 6 5 5 6 6 5 5 5 3 2 1 1 0 1 1 2 2 2 5 7 10 10 12
18 19 18 16 15 14 12 10 7 10 8 8 7 6 6 6 6 6 6 5 5 4 3 3 2 2 2 1 3 5 3 2 2 2 3 1 2 2 3 4 6 6 7
17 19 18 16 13 14 14 15 12 10 9 9 9 8 7 6 6 5 5 5 5 5 4 3 3 3 1 1 1 4 2 2 4 7 3 4 3 4 7 7 10 10 11
17 16 18 17 15 15 15 14 13 10 10 10 9 8 7 7 6 6 5 5 5 4 5 4 3 2 1 2 2 1 3 4 2 3 5 2 6 5 11 8 10 13 13
14 16 17 17 16 16 16 16 14 11 11 10 10 9 8 8 6 6 6 5 5 5 4 3 2 2 1 2 2 3 3 4 4 4 4 5 13 12 6 8 9 10 12
12 14 15 16 17 16 17 18 16 14 13 12 11 10 10 9 8 7 7 6 5 4 4 3 3 3 3 4 4 5 3 3 4 4 5 7 12 9 7 4 6 6 9
Wind_Direction
63 319 197 213 228 247 243 237 207 198 199 194 197 220 167 133 117 100 93 88 88 95 90 107 97 87 89 106 97 96 96 102 105 107 107 111 116 116 121 124 124 132 131
345 105 248 246 239 254 245 236 230 215 210 203 212 191 171 152 145 130 144 146 45 114 123 100 100 95 92 92 98 99 96 97 99 96 89 86 118 125 127 130 131 139 134
50 162 149 233 239 244 231 231 232 238 224 207 184 177 167 158 147 142 157 141 109 113 116 106 105 103 98 94 90 94 103 98 98 90 70 68 118 128 130 144 141 140 143
78 55 16 275 264 254 236 239 232 236 224 210 188 184 173 169 134 127 112 121 104 109 109 109 109 106 100 93 90 89 96 108 106 87 91 107 65 126 129 140 138 133 140
315 303 262 283 297 273 261 225 219 230 244 227 211 193 195 198 152 159 162 164 130 124 119 116 115 115 110 100 92 89 92 103 97 73 86 118 72 129 134 142 148 142 151
64 149 262 207 178 180 242 260 246 244 231 236 218 212 201 213 188 183 190 198 184 152 135 125 122 121 122 115 105 99 97 100 86 95 63 89 216 145 137 145 148 151 157
133 208 251 228 203 167 175 214 263 241 238 229 216 200 197 193 207 221 202 203 205 195 174 150 132 124 126 132 119 109 106 120 109 102 93 133 215 176 183 175 177 168 174
183 236 252 221 195 218 303 260 221 228 227 216 205 193 179 175 220 238 228 221 219 220 218 213 198 162 133 135 148 137 116 119 78 92 97 283 187 196 210 214 209 196 187
208 182 223 232 235 260 290 284 227 220 218 224 200 189 186 191 233 231 233 231 232 225 227 230 233 237 237 236 207 144 139 120 108 174 108 260 229 213 211 211 213 208 194
202 220 235 259 254 264 267 275 218 229 221 226 218 200 208 197 233 245 244 239 234 234 233 231 234 239 242 250 260 253 186 142 108 109 133 262 251 240 225 220 210 206 208
214 227 247 269 275 246 284 313 227 234 222 229 231 224 233 213 220 230 240 250 240 234 234 240 244 250 252 257 256 258 267 81 233 207 236 259 250 239 247 241 229 222 214
200 218 234 265 272 274 254 213 205 215 219 210 216 232 228 242 240 248 252 248 254 243 242 243 245 248 249 249 258 247 193 210 239 231 243 252 254 250 250 255 250 241 236
207 212 238 253 275 285 275 251 228 236 235 231 250 242 243 250 255 282 274 256 246 236 243 245 253 254 251 247 252 248 235 227 234 241 245 261 249 253 251 251 262 261 249
221 214 239 248 251 252 234 181 211 192 229 242 248 242 249 252 244 238 241 241 245 238 238 243 242 252 257 260 251 245 239 242 210 268 287 269 255 249 249 249 252 259 255
226 229 232 233 220 204 183 168 167 206 225 251 256 250 240 241 239 236 228 233 237 241 236 234 239 250 261 265 263 258 257 255 249 238 235 269 265 251 248 255 254 262 256
217 224 225 222 226 211 207 205 205 221 229 235 254 246 247 259 253 252 242 228 221 228 236 242 241 256 259 260 262 265 263 259 256 255 253 269 255 248 246 249 256 263 266
210 218 224 227 228 231 225 216 218 226 234 241 227 224 227 234 240 228 240 249 251 251 249 251 256 260 262 269 273 269 265 260 258 260 261 253 258 246 248 246 251 255 257
203 213 221 225 227 225 228 227 229 229 228 227 226 225 227 234 245 252 251 253 254 256 257 258 251 255 258 268 265 271 273 265 256 253 256 255 247 245 249 249 252 253 257
201 201 217 220 224 224 222 227 237 237 228 223 222 228 229 230 230 241 250 257 259 259 257 254 259 254 250 260 272 272 270 267 266 272 266 263 257 255 251 256 254 258 261
200 200 213 218 224 224 222 227 230 228 228 219 218 217 218 226 230 237 243 247 250 255 258 259 259 255 260 265 260 266 276 280 264 254 270 270 262 258 254 253 262 263 263
203 201 205 213 220 220 223 219 221 221 221 225 220 214 209 214 219 225 234 239 236 232 243 252 261 265 261 270 231 268 302 141 312 214 243 278 301 264 250 249 253 262 273
202 205 211 215 219 216 210 204 202 217 214 225 226 220 215 209 207 204 209 212 211 204 206 210 211 273 272 200 204 177 194 258 273 246 262 276 311 287 274 257 262 265 269
210 210 210 213 219 213 213 218 213 222 221 218 217 217 212 206 197 199 193 197 198 188 191 177 183 174 358 7 116 169 220 186 246 289 255 259 269 279 278 280 280 279 277
208 208 210 211 216 222 222 217 214 221 223 224 222 229 221 218 205 204 202 202 205 195 199 181 181 174 140 306 339 268 219 228 207 212 282 258 267 274 267 279 279 282 277
204 205 207 212 215 223 218 215 215 211 218 227 226 226 232 235 230 219 213 219 215 204 205 198 204 214 238 268 291 325 322 302 265 227 230 223 262 279 303 288 290 286 279
197 209 209 214 218 221 220 218 221 222 230 231 233 230 237 237 236 233 221 214 218 220 229 245 272 291 304 309 313 318 311 311 293 294 281 284 291 305 294 343 312 312 284
Height
1525 1525 1523 1524 1524 1525 1526 1526 1526 1527 1528 1529 1530 1530 1530 1532 1532 1533 1533 1532 1533 1533 1532 1531 1531 1532 1532 1532 1532 1532 1533 1533 1533 1534 1535 1535 1535 1536 1537 1538 1538 1539 1539
1526 1527 1526 1525 1525 1526 1526 1526 1527 1528 1528 1529 1530 1530 1532 1533 1534 1534 1535 1534 1534 1534 1534 1533 1533 1533 1534 1534 1535 1534 1535 1535 1536 1536 1537 1538 1537 1538 1539 1540 1540 1540 1542
1527 1526 1527 1525 1526 1526 1526 1527 1527 1528 1529 1529 1530 1531 1533 1534 1534 1535 1535 1535 1535 1535 1535 1535 1535 1534 1535 1535 1536 1536 1536 1537 1538 1539 1540 1541 1540 1539 1540 1541 1541 1542 1543
1527 1527 1527 1525 1526 1527 1527 1528 1528 1529 1530 1530 1531 1533 1534 1534 1535 1536 1537 1537 1537 1537 1537 1537 1536 1536 1536 1537 1537 1537 1538 1539 1540 1541 1541 1542 1542 1541 1541 1542 1543 1545 1545
1525 1525 1525 1525 1525 1526 1528 1528 1529 1531 1532 1533 1532 1533 1535 1536 1536 1537 1538 1538 1538 1538 1537 1538 1538 1538 1538 1538 1538 1538 1539 1540 1541 1543 1543 1543 1544 1543 1543 1543 1545 1545 1546
1526 1526 1524 1524 1525 1524 1526 1525 1529 1530 1531 1533 1532 1533 1535 1537 1537 1538 1539 1539 1539 1539 1538 1538 1539 1539 1539 1539 1539 1540 1540 1541 1543 1544 1545 1544 1543 1544 1544 1544 1545 1546 1548
1526 1525 1524 1525 1525 1526 1525 1526 1528 1529 1531 1533 1531 1531 1533 1536 1538 1538 1539 1539 1540 1540 1539 1539 1539 1540 1540 1540 1540 1540 1541 1542 1544 1545 1545 1544 1543 1543 1545 1545 1546 1547 1547
1525 1524 1524 1524 1525 1525 1526 1527 1528 1531 1534 1531 1531 1530 1532 1534 1536 1538 1539 1539 1539 1540 1540 1540 1540 1540 1540 1540 1540 1541 1541 1542 1544 1545 1545 1543 1543 1544 1544 1545 1546 1546 1547
1524 1524 1523 1523 1524 1524 1524 1525 1527 1529 1530 1532 1530 1531 1532 1534 1537 1538 1539 1539 1539 1540 1540 1540 1540 1540 1540 1540 1541 1541 1541 1542 1543 1544 1546 1545 1543 1544 1544 1544 1545 1546 1547
1523 1523 1523 1523 1524 1524 1524 1525 1525 1525 1525 1530 1530 1530 1532 1533 1536 1537 1538 1539 1540 1540 1540 1540 1540 1540 1540 1540 1541 1541 1541 1542 1544 1543 1544 1543 1543 1544 1544 1544 1545 1546 1547
1523 1523 1522 1523 1523 1524 1525 1525 1525 1526 1524 1526 1529 1532 1534 1532 1534 1537 1537 1539 1540 1539 1539 1539 1539 1540 1540 1540 1540 1541 1541 1542 1544 1544 1544 1542 1543 1543 1544 1544 1545 1545 1546
1523 1523 1523 1522 1523 1523 1524 1525 1527 1527 1527 1527 1528 1531 1532 1531 1535 1535 1538 1539 1540 1538 1539 1539 1539 1539 1539 1539 1539 1540 1541 1542 1544 1544 1542 1542 1542 1542 1543 1543 1544 1545 1546
1524 1524 1523 1523 1523 1524 1523 1524 1526 1526 1527 1528 1529 1530 1532 1533 1533 1534 1536 1538 1537 1538 1538 1537 1537 1538 1538 1538 1538 1539 1539 1539 1541 1542 1541 1541 1541 1541 1542 1543 1544 1544 1544
1519 1521 1521 1522 1523 1524 1524 1525 1525 1526 1527 1528 1529 1531 1530 1531 1533 1534 1535 1536 1537 1537 1538 1537 1538 1537 1536 1537 1537 1537 1537 1539 1540 1541 1540 1539 1539 1540 1541 1542 1543 1544 1544
1519 1519 1520 1520 1521 1522 1523 1524 1525 1525 1526 1527 1527 1529 1529 1530 1532 1532 1533 1534 1534 1535 1536 1536 1536 1536 1535 1535 1535 1535 1536 1535 1537 1537 1538 1537 1537 1538 1539 1540 1541 1542 1543
1517 1517 1518 1519 1520 1521 1522 1523 1524 1524 1525 1525 1526 1526 1528 1529 1530 1531 1531 1533 1534 1533 1534 1535 1535 1535 1533 1534 1532 1532 1533 1533 1534 1534 1534 1534 1535 1535 1537 1538 1539 1540 1542
1516 1517 1517 1518 1518 1519 1520 1520 1521 1522 1524 1525 1524 1525 1526 1527 1528 1528 1530 1532 1532 1531 1532 1532 1533 1533 1533 1531 1531 1531 1530 1530 1531 1532 1531 1532 1532 1534 1534 1535 1536 1537 1539
1514 1513 1514 1516 1517 1518 1518 1520 1519 1520 1520 1520 1522 1523 1524 1526 1527 1527 1528 1528 1529 1530 1530 1530 1531 1531 1530 1531 1531 1529 1529 1528 1529 1529 1529 1529 1530 1530 1531 1532 1533 1534 1536
1510 1511 1511 1513 1515 1515 1516 1517 1518 1518 1518 1519 1520 1520 1522 1523 1525 1526 1526 1526 1527 1527 1529 1529 1529 1528 1528 1529 1529 1528 1527 1526 1525 1526 1526 1526 1526 1528 1528 1528 1530 1531 1532
1508 1509 1509 1512 1514 1515 1515 1516 1517 1517 1518 1518 1518 1518 1519 1521 1522 1523 1524 1525 1526 1525 1526 1527 1527 1527 1527 1527 1527 1527 1525 1524 1524 1524 1525 1524 1524 1525 1526 1525 1527 1527 1529
1506 1508 1507 1508 1509 1511 1515 1515 1516 1516 1516 1517 1518 1518 1517 1519 1520 1521 1522 1523 1524 1524 1524 1526 1526 1525 1526 1526 1525 1525 1525 1526 1526 1523 1523 1523 1523 1523 1523 1523 1524 1525 1526
1502 1502 1505 1508 1508 1510 1511 1514 1518 1516 1516 1518 1519 1518 1517 1517 1518 1519 1520 1521 1522 1522 1522 1523 1524 1526 1525 1523 1524 1525 1526 1527 1525 1524 1523 1522 1522 1523 1523 1522 1524 1522 1523
1504 1504 1505 1507 1510 1510 1509 1510 1513 1515 1515 1515 1515 1517 1517 1517 1516 1517 1518 1520 1522 1521 1522 1521 1523 1524 1524 1524 1523 1525 1525 1524 1524 1523 1522 1522 1522 1523 1522 1520 1521 1521 1522
1500 1503 1504 1504 1507 1509 1510 1511 1511 1512 1513 1514 1515 1516 1516 1517 1515 1516 1516 1519 1520 1519 1521 1521 1521 1522 1523 1524 1524 1523 1523 1522 1523 1524 1522 1521 1521 1521 1519 1519 1519 1519 1518
1499 1500 1502 1504 1505 1508 1509 1511 1511 1512 1512 1512 1513 1514 1516 1517 1516 1515 1515 1517 1518 1518 1520 1520 1521 1521 1522 1522 1522 1521 1522 1521 1521 1521 1521 1522 1519 1518 1518 1516 1516 1517 1516
1498 1501 1503 1504 1503 1504 1509 1510 1511 1509 1510 1511 1512 1512 1514 1516 1515 1514 1515 1515 1517 1517 1518 1518 1519 1520 1520 1520 1520 1519 1520 1521 1521 1519 1518 1518 1516 1516 1515 1515 1516 1516 1515